This is the latest recevied weather packets stored in our database for station/object N3WGC-14. If no packets are shown the sender has not sent any weather packets the latest 10 day(s).
| Time | Temp. | Humidity | Pressure | Rain* | Wind** | Luminosity | Snow |
|---|---|---|---|---|---|---|---|
| 1787537220 | 25° C | 64% | 1013.1 hPa | 0 mm | - | - | - |
| 1787536920 | 25° C | 63% | 1013.2 hPa | 0 mm | - | - | - |
| 1787536620 | 25° C | 65% | 1013.2 hPa | 0 mm | - | - | - |
| 1787536319 | 25° C | 64% | 1013.3 hPa | 0 mm | - | - | - |
| 1787536019 | 25° C | 63% | 1013.2 hPa | 0 mm | - | - | - |
| 1787535719 | 25° C | 65% | 1013.3 hPa | 0 mm | - | - | - |
| 1787535419 | 25.56° C | 65% | 1013.1 hPa | 0 mm | - | - | - |
| 1787535119 | 25.56° C | 63% | 1013 hPa | 0 mm | - | - | - |
| 1787534819 | 25.56° C | 64% | 1013 hPa | 0 mm | - | - | - |
| 1787534518 | 25.56° C | 63% | 1013 hPa | 0 mm | - | - | - |
| 1787534218 | 25.56° C | 63% | 1012.9 hPa | 0 mm | - | - | - |
| 1787533918 | 25.56° C | 62% | 1012.8 hPa | 0 mm | - | - | - |
| 1787533618 | 25.56° C | 64% | 1012.9 hPa | 0 mm | - | - | - |
| 1787533318 | 25.56° C | 61% | 1012.9 hPa | 0 mm | - | - | - |
| 1787533018 | 25.56° C | 61% | 1012.8 hPa | 0 mm | - | - | - |
| 1787532718 | 25.56° C | 60% | 1012.8 hPa | 0 mm | - | - | - |
| 1787532417 | 25.56° C | 62% | 1012.7 hPa | 0 mm | - | - | - |
| 1787532117 | 25.56° C | 62% | 1012.7 hPa | 0 mm | - | - | - |
| 1787531817 | 25.56° C | 63% | 1012.6 hPa | 0 mm | - | - | - |
| 1787531517 | 26.11° C | 63% | 1012.5 hPa | 0 mm | - | - | - |
| 1787531217 | 25.56° C | 64% | 1012.5 hPa | 0 mm | - | - | - |
| 1787530917 | 25.56° C | 64% | 1012.3 hPa | 0 mm | - | - | - |
| 1787530617 | 25.56° C | 65% | 1012.2 hPa | 0 mm | - | - | - |
| 1787530316 | 25.56° C | 65% | 1012 hPa | 0 mm | - | - | - |
| 1787530016 | 26.11° C | 64% | 1012 hPa | 0 mm | - | - | - |
* Rain latest hour (hover to see other rain measurements)
** Current wind speed in m/s (hover to see current wind gust speed)